Theta_e
320 321 321 322 320 321 321 322 327 317 315 318 315 317 314 314 315 313 311 314 322 321 314 308 307 309 310 312 311 308 307 308 307 307 308 303 300 297 296 297 298 297 297 296 297 295 295 297 299 307 310 311 314 314 314 315 315 315 315 316 316 317 318 317 318 318 318 319 319 320 320 321 322 324 326 327 329 331 332 333 335 335 335 336 336 336 336 336 334 334 334 333 333 333 333 333 332
320 320 321 321 319 322 322 318 329 323 320 320 312 313 311 313 313 309 308 309 316 316 310 305 306 308 306 306 306 305 304 304 304 303 302 300 298 297 296 297 297 297 296 296 296 294 294 298 298 304 308 309 312 313 313 314 314 314 315 315 315 316 317 317 317 317 318 318 318 318 318 320 320 322 324 326 327 328 330 331 333 334 335 335 335 336 336 336 334 334 333 333 333 333 332 332 331
319 319 320 321 317 317 321 321 329 328 328 324 315 312 308 311 311 307 306 304 306 310 310 310 309 308 307 306 305 305 305 303 302 300 300 299 298 297 296 297 297 296 296 295 295 293 294 297 297 301 305 307 310 312 312 313 313 314 314 315 315 316 316 316 316 315 316 317 317 317 317 318 319 319 321 323 325 326 328 329 331 333 334 335 334 335 336 335 336 334 332 332 333 333 331 331 331
318 319 319 320 319 316 323 325 325 326 324 321 317 313 310 312 311 308 305 303 304 306 312 315 310 305 306 308 305 304 305 303 301 299 298 298 298 296 296 296 297 295 295 294 294 293 293 296 296 298 301 304 308 310 311 312 313 313 313 314 313 314 314 314 315 315 315 315 316 316 316 317 318 318 318 319 321 323 325 326 329 331 333 334 334 335 335 335 336 335 332 331 333 333 332 331 331
317 319 316 317 320 316 319 317 319 323 320 320 317 310 311 311 311 310 306 304 303 303 308 313 311 305 303 304 304 305 304 302 300 299 298 299 298 296 296 296 295 294 294 294 293 293 292 294 295 296 298 301 305 307 310 311 311 312 312 312 312 312 313 313 314 314 314 314 314 314 315 316 316 316 316 316 317 320 322 324 326 328 330 332 333 334 335 335 335 335 333 331 332 332 331 331 331
316 315 312 312 311 309 317 315 313 315 312 315 313 307 308 309 308 307 307 305 302 302 305 308 310 307 303 302 302 303 302 301 300 300 299 299 298 297 296 295 295 294 293 293 293 293 292 293 293 293 295 297 301 304 307 309 309 310 311 311 310 310 311 312 313 313 314 314 314 314 315 315 315 316 315 314 315 317 319 322 324 326 327 329 332 334 334 335 334 335 334 332 332 331 331 331 331
317 317 314 314 310 307 315 313 310 311 307 307 307 305 307 307 306 304 306 305 303 304 305 305 306 308 307 304 303 302 300 300 300 300 300 299 298 297 296 295 295 294 293 293 292 292 292 292 292 292 292 294 297 300 303 305 306 307 309 309 309 309 310 311 312 312 313 313 314 314 314 314 314 315 315 315 315 315 316 318 322 324 325 327 329 331 333 334 334 335 335 334 331 330 331 331 331
315 317 313 314 315 310 313 310 308 310 306 304 304 305 308 307 304 305 306 304 303 305 305 304 304 308 306 303 306 304 300 301 301 301 300 298 298 297 296 296 295 294 293 293 292 292 292 292 292 292 291 292 295 296 298 300 300 301 305 308 308 308 309 310 311 311 312 312 313 313 313 314 313 314 314 314 314 315 315 315 318 322 324 325 326 328 331 333 334 334 335 335 331 330 331 331 331
310 314 315 314 315 311 313 310 307 307 305 304 303 305 310 307 303 304 305 304 303 303 305 305 304 305 304 304 307 304 301 302 301 301 300 299 297 297 296 296 295 294 293 292 292 292 292 292 291 291 291 292 293 293 294 295 295 298 303 307 307 307 308 308 309 310 311 311 312 312 312 312 312 312 313 313 314 314 314 314 314 319 323 324 325 326 329 331 333 334 335 335 333 331 331 331 331
310 313 316 315 314 311 311 310 309 305 304 304 303 305 306 304 303 304 304 304 303 303 305 304 304 305 304 306 307 303 302 302 301 301 301 299 298 297 297 296 295 294 294 293 293 292 292 292 291 292 291 291 292 291 292 292 293 296 301 305 306 305 306 306 307 308 309 310 310 311 310 311 311 311 311 312 312 312 313 313 312 314 319 323 324 325 327 329 331 334 335 335 335 332 331 331 331
318 316 315 319 319 317 314 311 308 304 304 305 304 306 305 303 304 305 305 304 303 305 305 303 305 307 305 306 307 303 302 302 302 302 301 299 298 297 297 296 296 295 295 294 293 293 292 292 292 291 291 291 291 291 291 291 292 294 299 303 303 303 303 304 306 307 308 308 308 309 309 309 310 310 310 310 310 311 311 311 311 312 315 319 322 324 325 327 330 332 334 335 335 334 332 331 331
320 316 317 323 319 316 313 310 307 306 309 306 302 305 303 303 305 305 305 304 304 307 305 303 303 304 306 306 304 302 302 303 302 302 302 299 298 297 297 297 297 296 296 295 295 294 293 292 292 292 291 291 291 291 291 291 291 292 295 299 300 300 301 302 304 306 306 306 306 306 307 307 308 308 308 308 308 309 309 310 310 310 312 315 318 322 324 326 329 330 333 335 335 335 333 331 332
318 315 319 316 309 310 309 309 308 308 309 305 303 303 302 303 306 306 306 306 305 307 304 302 302 302 305 304 303 303 303 303 302 303 301 299 298 298 297 297 297 296 296 296 295 295 294 293 292 292 292 292 292 291 291 291 291 291 293 295 295 297 299 300 301 302 302 303 304 304 304 305 306 306 306 306 306 307 307 308 309 309 310 312 316 319 322 325 327 328 331 334 335 335 334 331 331
316 315 318 312 306 310 309 308 308 307 304 303 304 303 305 304 305 305 305 307 306 306 303 301 302 303 304 303 306 308 303 302 303 302 301 299 298 298 298 297 297 296 296 296 296 296 295 294 293 292 292 292 292 292 291 291 291 291 292 292 292 294 296 297 298 298 299 300 301 302 302 303 304 303 303 304 304 304 305 307 307 309 309 311 313 315 320 323 326 327 328 331 335 335 334 332 331
313 313 315 313 310 312 308 308 310 308 303 303 304 303 306 304 303 306 304 306 306 303 301 300 301 303 303 302 306 307 303 302 303 302 301 299 299 299 298 298 297 297 296 296 295 295 295 295 294 293 293 292 292 292 291 291 291 291 291 292 292 293 294 295 296 296 297 299 300 299 300 300 301 300 301 302 303 303 304 305 306 307 308 309 310 312 316 321 325 326 327 329 334 335 334 333 331
309 314 319 315 310 310 307 306 308 307 304 304 303 302 305 304 303 305 302 303 304 302 302 303 302 302 304 304 304 304 302 303 303 302 300 299 299 300 299 298 298 298 297 296 296 296 295 295 295 294 293 292 292 292 291 291 291 291 291 292 292 294 295 294 294 294 295 299 300 298 298 298 299 299 301 302 302 302 303 304 305 306 307 307 308 310 314 319 324 325 326 329 332 334 335 334 331
307 314 318 314 310 309 308 307 305 304 305 304 304 303 306 306 303 303 300 301 305 304 305 304 301 300 304 305 303 303 303 303 302 302 300 299 299 300 300 299 298 298 298 297 296 295 295 295 295 294 294 293 292 292 292 291 291 291 291 291 292 294 296 294 294 294 294 298 301 298 297 297 298 300 302 302 301 301 302 303 304 305 305 306 306 308 312 316 322 324 325 328 331 333 334 335 332
314 318 312 310 310 307 308 309 304 303 306 304 304 304 306 306 305 303 301 306 309 307 307 306 303 302 303 303 303 303 303 303 302 301 300 299 299 299 299 299 298 298 297 297 297 296 295 295 295 294 294 293 292 292 292 291 291 291 291 291 291 294 297 297 296 295 295 298 301 299 297 297 299 300 302 302 300 301 302 303 303 303 304 305 305 306 311 316 320 324 326 328 331 332 333 335 332
313 318 312 309 310 305 304 306 304 303 306 306 305 304 304 305 304 303 304 308 308 308 311 308 307 308 305 303 303 303 303 303 302 300 299 299 298 298 298 298 298 298 297 297 297 296 295 294 294 294 294 294 293 292 292 292 291 291 291 291 291 294 298 300 300 299 298 298 300 300 300 300 300 300 302 302 301 302 303 303 303 303 304 304 305 306 310 315 320 324 326 328 330 331 333 333 331
307 314 317 308 306 306 302 303 304 303 304 306 305 303 304 304 303 303 305 308 307 309 311 306 306 311 309 305 302 303 303 303 303 300 299 299 298 298 298 298 298 298 297 297 297 297 296 295 294 294 294 294 293 292 292 292 292 291 291 291 291 293 298 301 302 302 299 299 300 300 301 301 299 300 302 302 302 303 304 305 304 303 304 305 306 307 310 315 320 324 326 328 330 331 331 332 331
306 309 314 305 304 307 303 304 305 303 304 306 306 303 304 303 302 304 305 305 309 311 309 306 306 310 311 305 301 302 302 302 302 300 299 298 299 299 299 299 299 299 297 297 297 297 297 296 295 294 294 294 293 293 292 291 291 291 291 291 291 293 298 300 302 303 299 298 299 300 301 300 299 300 301 301 302 303 304 306 305 304 305 305 307 309 312 316 320 323 326 327 328 329 330 331 331
306 303 305 305 305 306 303 304 305 303 304 307 306 304 304 302 302 306 306 305 312 312 308 308 307 306 308 304 301 301 300 301 302 300 299 299 298 299 300 299 299 299 298 297 297 297 297 297 296 295 295 295 294 293 292 291 291 290 291 291 291 293 296 298 302 303 300 298 299 300 300 299 299 300 300 301 302 303 305 307 307 305 306 306 308 311 314 318 322 324 325 327 327 328 329 330 330
306 303 303 304 304 305 303 304 305 304 306 307 306 303 303 304 304 304 305 306 312 309 303 304 303 301 301 299 299 299 299 299 301 301 299 299 299 299 300 299 299 299 298 298 298 298 297 297 296 296 295 295 294 294 292 291 291 290 290 291 291 292 294 297 301 303 301 299 299 299 298 298 298 299 300 301 302 303 306 308 308 307 307 307 308 311 315 319 323 325 326 326 327 328 328 329 330
306 305 303 303 304 305 304 305 307 307 308 306 304 303 302 305 304 302 305 307 311 305 296 297 298 298 298 297 298 298 298 299 300 301 300 299 299 300 300 299 299 299 299 298 298 298 298 297 297 296 296 296 295 294 293 291 291 290 290 291 291 291 293 295 299 303 304 301 299 299 298 298 299 299 301 301 302 304 307 309 310 309 308 308 309 312 317 322 325 326 326 326 327 328 328 328 329
306 305 304 304 305 305 304 307 311 311 309 304 303 305 304 304 302 302 308 310 310 302 295 296 297 299 300 300 299 296 297 299 301 301 300 300 299 300 300 300 300 299 299 298 298 298 298 298 297 297 296 296 296 294 294 292 291 290 290 290 291 291 292 294 298 302 304 304 302 300 299 300 300 300 301 302 303 305 308 310 311 311 310 309 310 315 319 323 326 326 326 326 327 328 328 326 326
305 304 304 306 304 304 305 306 310 310 308 305 303 306 305 303 301 306 312 311 309 302 300 302 301 304 307 304 298 295 297 299 301 301 300 301 300 300 301 300 300 299 299 299 298 298 298 298 297 297 296 296 296 295 294 293 291 291 290 290 290 291 291 293 297 301 303 305 304 303 301 300 301 301 302 302 304 306 308 310 313 314 313 312 314 317 320 323 326 326 326 327 327 327 327 326 325
304 305 304 305 304 304 305 305 307 307 306 305 305 306 307 304 304 309 312 308 305 304 307 309 307 308 310 306 298 295 297 299 301 300 300 301 300 301 301 300 300 300 300 299 298 298 298 298 297 297 297 296 296 296 295 293 292 291 290 290 290 291 291 292 296 301 304 306 306 306 303 302 302 303 303 303 304 306 308 310 313 316 317 316 317 318 320 323 325 326 326 327 327 326 326 326 326
303 305 305 305 306 305 304 305 306 304 304 304 303 304 305 303 305 312 311 305 305 306 308 310 310 309 309 309 301 293 296 300 300 300 300 301 301 301 301 301 300 300 300 299 299 298 298 298 298 297 297 296 296 296 295 294 293 292 291 290 289 290 290 291 293 299 305 308 308 308 306 305 304 304 304 305 306 307 308 309 312 316 319 319 319 319 320 323 324 325 325 325 325 325 324 323 323
304 305 306 307 311 308 304 305 304 303 304 303 302 304 307 305 307 314 311 306 305 306 308 310 310 310 310 311 305 296 297 300 300 300 301 301 301 301 301 301 300 300 300 299 299 298 298 298 298 298 297 297 296 296 296 295 293 292 291 290 290 289 290 290 291 295 303 308 310 309 308 307 306 305 304 305 307 307 308 309 310 314 318 321 322 322 322 323 323 323 323 322 323 323 322 319 320
304 306 308 311 316 309 303 305 304 303 304 302 302 308 315 312 312 312 307 305 305 306 309 309 310 311 311 311 309 304 299 300 301 301 302 301 301 301 301 301 300 300 300 299 299 298 298 298 298 298 297 297 297 296 296 295 294 293 292 291 290 289 289 290 290 291 296 304 309 309 309 309 308 307 306 306 306 307 308 310 311 313 315 319 322 323 323 324 323 321 320 320 320 320 319 316 316
307 304 308 313 316 308 304 307 307 304 304 302 302 310 318 314 314 308 302 304 304 306 310 310 311 311 311 311 310 308 300 299 301 301 301 301 301 301 301 301 300 300 300 299 299 298 298 298 298 298 298 298 297 297 296 296 295 294 293 292 291 290 289 289 290 290 291 297 304 308 309 310 309 309 309 309 308 308 309 310 312 313 315 317 319 321 322 322 322 320 319 319 317 317 317 314 313
311 304 310 316 314 308 305 306 306 304 303 303 303 311 317 311 312 306 300 304 304 306 310 309 312 311 312 311 308 309 302 298 300 301 301 301 301 301 301 301 300 300 300 299 299 298 298 298 298 298 298 298 298 298 297 296 296 295 294 293 292 290 290 289 289 290 290 291 297 304 308 309 310 310 311 311 311 310 310 311 312 314 315 316 317 318 318 317 317 317 316 318 317 315 315 313 311
317 312 315 315 312 310 307 305 302 302 304 304 304 309 313 309 308 305 300 303 305 306 309 309 312 312 311 310 308 309 305 301 300 300 302 302 301 301 301 301 300 300 300 300 299 298 298 298 298 298 298 298 298 298 298 297 296 296 295 294 293 292 290 290 290 290 290 290 291 297 304 308 309 309 311 311 311 312 311 312 313 313 315 316 316 316 316 313 313 314 312 313 314 312 312 310 308
323 322 319 310 310 311 310 308 302 302 304 305 305 306 310 310 307 305 301 302 305 306 308 309 310 311 309 308 309 309 308 307 303 300 301 302 302 301 301 301 300 300 300 300 299 298 298 298 298 298 298 298 298 298 298 298 297 296 296 295 294 293 292 291 290 290 290 290 290 291 297 304 308 308 309 311 311 312 312 312 312 312 313 313 314 314 314 313 313 313 310 308 309 309 308 306 305
316 321 318 311 313 312 311 311 304 303 306 306 307 306 309 311 306 305 302 301 304 306 306 307 308 309 307 306 309 309 309 309 303 301 302 301 302 302 301 301 301 301 300 300 300 299 298 298 298 298 298 298 298 298 298 298 298 297 297 296 295 294 293 292 291 291 290 290 290 290 291 297 304 307 308 309 310 312 312 312 312 312 312 312 312 311 312 312 312 312 311 309 308 307 307 305 304
313 315 313 312 316 314 311 311 305 301 306 308 310 310 310 310 306 307 305 301 302 305 304 304 305 306 306 307 309 310 312 309 302 300 301 301 302 302 301 301 300 301 301 300 300 299 298 298 298 298 298 298 298 298 298 298 298 298 298 297 297 295 294 294 293 292 291 290 290 290 290 291 296 303 307 308 309 310 311 311 312 312 312 312 311 310 310 310 310 309 309 309 308 306 305 305 305
310 312 313 311 313 317 313 309 305 301 306 311 310 311 310 308 308 308 306 302 304 307 307 307 307 306 306 307 309 310 310 305 300 300 301 301 302 302 301 301 301 301 301 301 300 300 299 298 298 298 298 298 297 297 297 297 297 298 298 297 297 296 295 294 294 293 292 291 291 290 290 290 290 295 301 306 307 308 309 310 311 310 311 311 311 310 309 309 309 309 308 307 308 306 304 304 305
308 310 313 312 311 316 311 304 305 303 305 311 309 308 310 311 311 310 306 306 308 310 309 309 310 307 305 306 309 310 307 302 297 298 301 302 302 302 302 301 301 301 301 301 301 300 300 299 299 298 298 298 297 297 297 297 297 297 297 297 297 297 296 295 294 294 293 292 292 291 290 290 290 290 293 299 304 307 307 308 309 309 310 310 310 310 309 309 308 309 308 307 307 307 305 304 305
309 310 313 315 311 312 310 304 305 303 304 315 312 307 312 315 313 314 311 308 310 309 307 308 308 307 307 306 309 309 309 307 302 300 301 302 302 302 302 302 301 301 301 301 301 301 301 300 300 299 299 298 298 298 297 297 297 297 297 297 297 297 297 296 295 294 294 293 293 292 291 290 290 290 290 292 297 303 306 307 307 307 308 309 309 309 309 309 308 308 308 307 307 306 305 305 306
310 312 314 315 309 310 314 310 306 303 303 311 309 306 316 320 315 316 311 306 308 308 307 309 306 306 306 304 304 306 309 310 309 306 300 300 302 302 302 302 301 301 301 301 301 301 301 301 301 300 299 299 298 298 298 297 297 297 297 297 297 297 297 297 297 296 295 295 294 293 292 291 290 290 290 290 291 294 300 304 306 306 306 307 307 308 308 308 308 307 307 307 306 306 305 305 306
310 311 312 311 308 307 311 308 305 307 304 303 307 314 328 328 319 318 313 307 310 309 309 313 311 306 304 304 305 304 306 306 309 310 302 297 300 302 302 302 302 302 301 301 301 301 302 301 301 301 300 300 299 299 298 297 297 297 297 297 297 297 298 298 298 298 297 295 295 294 293 292 291 290 290 290 290 290 292 296 301 304 305 306 306 306 307 306 306 306 306 306 306 306 305 305 305
313 309 307 306 306 305 306 306 307 318 315 304 306 319 334 333 323 319 318 316 315 311 311 314 315 313 310 312 313 308 307 305 302 304 300 295 297 300 302 302 302 302 302 302 301 301 302 302 301 301 301 300 300 299 299 298 298 297 297 297 297 296 297 297 297 297 297 296 295 294 294 293 293 292 291 290 290 290 290 290 293 297 301 304 305 305 305 305 305 305 305 305 305 305 305 305 305
314 307 304 304 304 305 307 308 309 319 318 304 305 317 327 335 330 320 316 318 318 313 314 317 318 320 319 317 316 312 312 309 304 301 295 293 298 299 301 302 302 302 302 302 302 302 301 302 301 301 301 301 300 300 299 299 298 298 297 297 296 296 296 297 297 296 297 297 296 295 294 294 293 293 293 292 291 290 290 289 290 291 293 297 302 304 305 305 305 305 304 304 305 305 305 305 304
312 305 304 306 305 305 306 308 311 314 311 308 312 313 315 330 332 320 312 314 316 316 317 319 321 322 319 318 316 314 313 311 311 310 300 293 297 299 300 302 302 301 302 302 302 302 301 302 301 301 301 301 300 300 300 299 299 298 298 297 297 296 296 296 297 297 297 297 297 296 295 295 294 294 293 293 292 291 291 290 290 290 290 291 294 297 300 303 304 304 304 304 304 304 304 304 304
307 303 303 304 303 305 305 308 315 313 311 318 319 309 312 331 333 319 311 310 316 321 321 321 321 320 318 318 317 315 315 312 308 309 303 295 298 301 301 301 302 302 302 302 302 302 302 302 301 301 301 301 301 300 300 300 299 299 298 298 298 297 297 297 296 296 297 297 297 297 296 296 295 294 294 293 293 293 292 291 291 290 290 290 290 290 292 295 298 301 302 303 303 303 304 304 303
304 301 303 303 303 305 305 308 314 314 317 321 316 307 313 333 337 324 313 311 319 324 324 322 320 319 317 317 316 314 316 316 307 299 296 296 300 301 301 301 302 303 302 302 302 301 301 301 301 301 301 301 301 300 300 300 299 299 299 298 298 298 298 297 297 297 297 296 297 297 297 297 296 295 295 294 294 293 293 293 292 292 291 290 290 290 289 290 291 293 296 299 301 302 302 302 302
301 302 304 305 306 306 307 311 313 317 328 322 310 307 311 324 337 328 314 314 320 318 316 316 316 317 318 317 317 316 314 315 310 299 293 296 300 301 302 302 302 303 303 302 302 302 302 301 301 301 301 301 301 300 300 300 300 299 299 299 298 298 298 298 297 297 297 297 297 297 297 297 297 296 296 295 295 294 294 293 293 292 292 291 291 290 289 289 289 290 291 292 294 297 299 300 301
301 305 307 309 316 312 313 322 319 319 331 321 309 308 308 318 331 326 319 318 317 314 311 313 314 315 317 316 317 317 312 309 309 306 298 295 298 301 302 303 303 303 303 303 302 302 302 301 301 301 301 301 301 300 300 300 300 300 299 299 299 299 298 298 298 298 297 297 297 297 297 297 297 297 297 296 295 295 295 294 294 293 292 292 292 291 290 290 290 289 289 289 290 291 293 294 296
305 312 315 321 333 325 323 334 327 323 325 312 305 307 308 317 323 321 324 322 317 314 312 313 314 314 316 316 315 313 308 306 306 307 304 296 294 299 301 302 302 303 303 303 303 302 302 302 301 301 302 302 301 300 300 300 300 300 300 299 299 299 299 298 298 298 298 297 297 297 296 297 297 297 297 297 296 296 296 295 295 294 294 293 292 292 292 292 291 291 290 290 290 289 290 290 291
311 315 317 327 335 328 330 333 320 320 323 308 301 307 315 321 318 317 321 318 313 310 307 308 309 310 313 311 309 307 307 306 303 304 305 298 294 297 299 301 302 302 303 303 302 303 302 302 302 301 302 302 301 301 301 301 301 301 300 300 300 299 299 299 299 298 298 298 297 297 297 296 296 297 297 297 296 296 296 296 295 295 295 294 294 294 293 293 292 292 292 291 291 290 290 290 289
309 306 309 323 326 320 326 329 322 321 323 314 305 310 324 324 314 314 315 313 309 306 305 304 305 306 306 305 305 306 308 307 304 304 304 296 294 298 299 300 302 302 303 303 303 303 302 302 302 301 302 302 302 302 301 301 301 301 301 300 300 300 300 300 299 299 299 298 298 297 297 297 297 297 297 297 296 296 296 296 296 296 296 295 295 295 294 294 293 293 292 292 292 291 290 290 289
306 303 313 321 316 317 318 314 316 315 317 323 314 312 324 320 312 312 311 309 308 308 307 306 308 307 304 306 309 308 308 309 309 312 309 297 295 298 299 300 302 302 303 303 303 303 302 302 302 301 302 302 302 302 301 301 301 301 301 301 301 300 300 300 300 300 299 299 299 298 298 298 297 297 297 297 296 296 296 296 296 296 296 296 296 295 295 294 294 293 292 292 292 291 291 290 290
309 312 317 309 304 316 318 307 306 306 313 326 319 315 322 316 311 315 312 310 310 310 310 309 310 309 307 309 312 310 311 313 314 314 307 298 296 298 300 301 302 301 302 303 303 303 302 302 302 302 302 302 302 302 301 301 301 301 301 301 301 300 300 300 300 300 299 299 299 299 299 299 298 298 298 297 297 297 297 296 296 296 296 295 295 295 295 295 294 294 293 293 293 291 290 290 290
313 318 311 303 303 312 315 314 318 318 321 326 319 318 322 315 315 321 315 313 316 315 314 311 311 311 310 311 312 313 312 310 310 307 300 295 295 298 300 301 302 302 302 303 303 303 302 302 302 302 302 302 302 302 302 302 301 301 301 301 301 301 300 300 300 300 299 299 299 299 299 299 299 299 298 298 298 298 298 297 297 297 297 296 295 295 295 295 294 294 294 294 294 292 291 291 291
306 311 304 305 312 315 316 318 323 323 321 325 323 319 317 316 324 326 316 315 323 321 317 316 314 312 312 313 315 316 314 311 311 312 306 297 296 298 299 301 303 303 302 303 303 303 302 303 302 302 302 302 302 302 302 302 301 301 301 301 301 301 300 300 300 300 300 299 299 299 299 299 299 299 298 298 298 298 298 298 298 298 297 297 296 296 295 294 294 294 294 294 294 293 292 292 292
305 309 304 306 312 312 314 312 314 319 321 322 325 325 323 322 325 327 321 321 325 322 319 318 317 316 315 315 317 318 318 317 315 315 309 298 295 299 300 301 303 303 303 303 303 303 303 303 302 302 302 302 302 302 302 302 302 301 301 301 301 301 301 301 300 300 300 300 299 299 299 299 299 299 298 298 298 298 298 298 298 298 298 297 297 297 296 295 294 294 294 294 294 293 293 293 293
308 312 308 310 308 303 306 307 306 314 323 322 321 326 330 323 318 322 324 325 324 319 319 318 318 319 318 317 318 317 317 316 312 310 305 297 295 299 300 301 302 302 303 303 302 303 302 302 303 302 302 302 302 302 302 302 302 302 302 301 301 301 301 301 300 300 300 300 300 300 299 299 299 299 298 298 298 298 298 298 297 297 297 297 297 297 297 296 295 294 294 293 293 293 293 293 293
304 308 308 312 311 308 316 316 306 307 314 319 317 320 326 319 314 317 319 320 321 317 316 316 316 316 317 317 315 311 310 309 307 305 300 295 295 297 298 300 301 301 302 302 302 302 302 303 303 302 302 302 302 302 302 302 302 302 302 302 301 301 301 301 301 300 300 300 300 300 300 299 299 299 299 298 298 298 298 297 297 297 297 297 297 297 297 296 295 295 294 294 294 293 293 293 292
Wind_Speed
5 5 5 7 7 3 7 6 4 3 4 4 1 1 2 1 1 2 4 4 1 1 1 1 3 2 3 3 4 3 2 2 2 1 1 5 16 21 20 22 21 21 22 22 23 24 23 22 21 23 23 24 24 23 23 23 23 23 23 23 22 22 22 23 23 23 22 22 23 22 23 22 22 21 19 19 18 15 14 15 13 14 17 19 18 16 16 15 15 16 15 15 14 13 12 10 8
6 8 9 10 6 4 2 3 5 3 5 4 2 1 2 3 3 2 5 3 2 2 0 1 5 6 6 5 4 3 2 1 2 1 3 10 19 20 21 21 19 20 20 21 22 22 21 20 20 21 22 22 22 22 22 22 22 22 22 23 23 22 23 23 23 22 22 22 22 22 22 22 22 21 20 20 19 16 15 15 13 12 15 17 18 17 17 16 16 17 16 16 16 15 13 11 9
11 12 11 10 9 7 2 4 5 2 5 3 2 3 1 2 0 2 4 3 5 3 1 1 3 3 4 5 3 2 1 2 0 1 4 11 15 18 21 19 18 19 19 20 20 20 19 18 19 19 21 22 22 22 21 21 21 22 22 23 22 22 22 22 23 22 21 21 22 22 22 22 22 21 21 20 19 18 16 16 13 12 12 14 16 18 19 17 16 17 17 16 16 16 15 13 12
10 9 6 6 6 6 4 5 3 4 4 3 1 3 1 2 4 3 2 3 4 2 1 2 2 1 3 3 1 1 2 2 1 1 4 9 12 16 19 16 17 17 17 18 18 19 18 18 18 19 20 21 21 21 21 21 21 22 22 22 22 22 22 21 22 22 21 20 20 21 21 22 22 21 22 22 21 20 18 18 16 14 12 11 14 17 20 19 17 19 18 16 18 17 15 14 14
12 10 8 7 4 2 4 4 2 4 3 3 2 2 3 4 5 4 3 4 4 3 0 1 1 2 2 1 1 1 2 2 3 3 5 10 12 15 16 15 16 16 16 17 17 18 18 18 18 19 19 20 20 21 21 21 21 21 22 22 23 23 23 23 22 22 21 22 21 22 22 21 22 22 21 22 22 21 21 20 18 17 14 11 11 14 18 21 19 19 19 17 19 18 16 15 15
16 18 21 16 5 1 4 4 4 4 2 3 3 2 5 3 4 3 4 4 2 2 2 2 1 1 1 1 1 2 2 0 3 5 6 10 12 13 15 15 15 16 17 17 17 18 18 18 18 19 19 19 20 21 21 20 21 21 22 22 24 24 24 24 23 23 22 21 22 22 22 22 22 22 22 21 21 22 22 22 20 19 18 15 11 11 15 20 21 19 20 21 20 19 17 17 16
9 10 14 14 5 3 6 5 4 2 1 2 2 2 4 4 3 1 4 3 1 4 3 2 0 2 1 2 1 3 3 2 4 5 7 10 12 12 14 15 15 16 16 17 18 18 18 18 19 19 19 20 20 21 21 21 21 21 22 22 24 25 25 25 24 24 23 22 21 21 22 22 22 21 21 21 21 21 22 23 22 20 19 17 15 14 12 14 21 22 22 23 22 20 18 18 17
11 5 2 6 4 4 5 4 3 2 0 0 1 1 3 4 2 2 4 1 1 3 3 3 2 2 1 0 0 4 4 4 5 7 8 10 11 12 14 15 16 16 16 17 18 19 19 19 19 20 20 20 20 21 20 21 21 22 22 22 24 25 25 26 25 24 24 23 22 21 21 22 22 21 21 20 21 21 21 22 23 23 20 18 19 17 12 10 17 23 23 22 23 22 20 20 19
15 8 1 5 5 4 4 3 2 1 1 2 1 1 3 3 1 3 2 2 1 2 4 5 2 1 1 1 1 4 2 3 5 8 8 10 12 13 15 15 17 17 17 18 19 19 19 19 20 20 21 21 21 21 20 20 21 22 22 22 25 26 26 26 27 26 24 24 23 22 21 21 22 22 20 20 20 20 20 21 22 24 23 21 19 17 14 12 13 20 25 24 25 25 23 22 21
10 7 3 5 4 5 4 1 1 1 1 2 2 3 4 2 1 2 2 2 1 1 4 4 0 1 1 1 2 1 1 4 7 9 9 10 12 12 14 15 16 18 18 19 19 20 19 19 20 21 22 22 22 22 21 21 22 22 22 23 25 26 27 27 28 27 26 25 23 22 21 20 20 20 21 20 20 19 20 20 20 21 23 24 23 19 17 15 13 13 23 26 24 25 25 23 22
4 5 4 5 5 4 2 2 1 1 2 3 2 4 4 1 2 2 2 1 1 2 3 2 1 1 1 2 2 2 3 6 8 9 11 11 12 12 13 14 15 17 18 19 20 20 20 20 21 21 22 23 23 22 23 23 23 24 23 23 25 27 27 28 28 28 27 26 24 23 21 19 19 19 20 20 20 19 19 19 18 19 20 23 23 20 18 17 14 11 16 23 23 24 25 23 21
4 3 4 5 3 3 3 4 2 1 5 3 1 4 2 1 3 2 2 1 1 3 2 1 1 2 1 2 2 4 4 5 8 10 11 11 13 12 13 14 14 16 17 19 20 20 21 22 22 22 23 23 23 23 23 24 24 25 25 24 26 27 27 28 29 29 28 27 25 23 21 19 18 18 19 20 20 19 18 18 17 18 18 19 17 17 18 17 15 13 13 18 24 26 27 25 22
4 2 6 5 1 3 4 4 1 1 4 1 2 3 1 2 2 4 3 0 2 4 2 2 2 2 1 2 3 5 4 6 9 11 10 11 14 13 13 13 13 14 15 18 19 21 22 23 23 23 24 24 24 24 24 25 25 26 27 26 28 29 29 29 30 30 30 28 26 23 21 19 18 18 18 19 19 18 18 17 17 17 16 16 14 15 17 16 16 16 12 13 23 27 27 27 25
3 3 6 4 1 3 4 3 0 2 1 3 2 3 1 1 2 5 3 3 4 1 1 2 4 2 0 2 4 4 5 8 11 12 10 10 13 13 13 12 12 13 15 17 19 20 22 23 24 24 25 25 26 26 26 26 27 28 28 29 30 31 31 30 31 34 34 31 27 24 20 18 18 17 17 17 18 18 17 17 16 16 15 15 14 15 15 17 18 17 15 12 20 25 25 27 27
4 3 5 5 2 3 2 2 2 4 2 3 1 2 1 1 3 2 2 2 4 4 1 1 2 1 1 1 3 5 7 11 12 12 10 9 11 13 13 12 12 13 15 16 18 21 22 24 24 25 25 26 26 26 26 27 28 29 30 31 31 32 32 31 31 35 38 34 28 23 20 18 17 15 15 15 17 17 17 16 16 15 15 15 15 15 14 17 20 19 17 12 16 22 23 26 28
4 4 5 4 2 2 2 1 3 4 2 4 2 2 2 1 2 1 3 3 2 3 2 1 1 0 3 2 4 7 10 12 13 12 10 10 12 14 15 13 14 14 15 17 19 21 22 23 24 25 25 26 26 26 27 28 29 30 31 32 32 33 33 33 32 34 38 36 29 22 19 17 15 15 15 17 17 16 16 15 15 16 16 16 16 15 14 16 22 19 16 14 15 18 22 25 28
3 5 6 5 3 3 4 3 4 3 3 4 4 1 3 3 2 1 2 2 1 3 3 2 1 2 5 4 7 9 11 13 13 11 10 11 12 15 17 17 17 16 17 17 18 20 21 22 23 24 25 26 27 27 27 28 29 30 31 33 33 33 33 33 33 34 37 36 30 24 20 17 17 18 19 19 17 16 17 17 16 17 16 17 16 14 14 14 20 20 15 15 15 17 22 24 27
5 4 6 4 3 2 5 6 5 3 3 4 3 0 4 1 3 1 1 3 4 4 4 4 4 5 7 9 11 11 12 12 13 11 11 11 11 14 16 17 18 18 18 18 18 19 21 22 22 24 25 26 27 27 28 29 29 30 31 33 33 34 34 34 34 34 36 35 30 26 23 20 19 20 19 18 17 16 17 18 18 17 17 17 15 13 14 14 17 21 16 15 16 16 21 25 26
5 4 5 2 3 2 3 6 5 2 3 3 1 0 2 2 2 2 1 4 6 4 6 5 5 8 7 9 10 9 10 12 12 11 11 11 11 12 15 16 17 17 18 19 19 19 20 21 22 23 25 26 27 28 28 29 29 30 31 32 33 34 35 35 34 34 34 33 30 26 23 21 21 20 18 16 15 15 15 17 17 16 15 14 12 10 13 14 15 19 17 15 18 16 19 26 27
3 4 5 1 5 2 1 4 4 4 3 4 1 0 1 1 1 1 1 3 4 2 5 3 3 7 7 8 8 8 11 13 13 11 11 11 11 11 13 15 16 17 17 18 18 18 19 20 21 22 24 25 27 28 28 28 28 29 30 31 34 34 35 35 34 33 32 31 29 26 23 22 22 21 18 16 15 14 13 14 15 13 12 11 9 8 10 13 13 15 16 15 17 17 16 25 28
4 4 4 3 3 3 0 3 2 3 3 5 2 1 0 1 0 1 3 1 5 5 6 6 6 7 7 9 10 11 12 14 13 11 11 11 11 11 12 13 14 16 15 15 17 17 18 19 20 21 22 24 26 27 27 27 27 28 29 31 33 34 34 35 34 32 31 30 28 26 23 22 22 21 19 18 17 16 15 14 14 13 11 10 7 7 8 10 10 10 14 14 15 16 14 20 27
5 2 1 2 3 4 1 2 1 2 3 4 2 1 1 1 0 2 5 3 5 5 5 8 9 8 7 7 11 12 13 13 13 12 12 11 11 11 11 12 13 14 14 13 15 16 17 18 20 21 22 23 25 26 26 26 25 26 28 30 33 33 33 33 35 33 30 30 27 25 23 22 23 22 20 20 18 17 16 15 14 13 12 10 6 5 6 7 7 6 10 12 12 15 15 16 23
6 2 3 2 2 3 0 2 1 2 5 4 1 1 1 2 2 1 4 7 8 6 5 7 8 8 7 8 9 10 11 12 13 13 11 11 11 11 12 12 13 14 14 13 13 15 16 17 19 20 21 22 23 24 25 25 24 24 26 29 31 33 33 32 34 34 30 28 27 25 24 23 23 22 22 21 20 18 17 15 14 13 13 11 7 5 3 3 4 4 6 10 10 11 15 18 22
8 3 2 3 2 3 1 1 1 3 4 1 2 0 1 1 2 1 3 9 9 8 6 5 8 8 8 8 9 9 11 12 12 12 11 10 11 11 12 12 11 13 14 12 12 14 16 17 18 19 20 21 22 23 24 24 23 23 25 27 30 33 33 32 33 34 32 29 26 25 25 24 23 23 23 23 21 19 18 15 13 12 12 10 6 4 2 3 2 2 3 6 7 7 11 17 23
7 4 1 1 2 2 1 2 5 4 1 2 0 1 3 3 1 1 7 10 8 8 6 5 6 7 7 6 9 10 11 12 11 11 10 9 10 11 11 10 10 12 13 12 12 14 15 16 17 18 20 20 21 22 23 24 23 23 24 26 29 32 33 32 31 33 34 32 28 25 25 25 24 24 24 23 23 21 18 15 14 11 10 8 4 3 1 2 2 2 1 3 4 4 6 11 19
2 3 2 2 1 4 2 3 5 4 2 2 1 4 5 3 1 3 9 9 6 5 5 4 5 7 7 5 9 9 9 11 10 10 10 9 9 11 10 9 10 11 12 12 12 13 14 15 16 17 19 19 20 20 22 23 24 23 23 25 27 30 32 33 32 31 33 34 31 26 25 25 25 25 23 22 22 21 18 14 13 10 7 5 2 2 1 1 3 3 1 1 3 5 7 9 13
4 5 5 5 1 3 3 3 5 4 2 2 0 4 5 1 1 3 7 6 4 5 6 6 5 6 8 6 9 8 9 10 10 10 10 10 9 10 10 9 10 10 11 12 12 12 13 15 15 16 18 19 19 19 20 21 23 23 23 23 25 28 30 33 33 31 31 33 33 30 27 26 25 24 22 21 20 18 16 13 11 10 8 4 2 4 4 4 3 3 4 5 6 8 11 12 12
5 6 5 6 4 4 5 3 5 4 1 1 1 4 4 2 1 6 6 5 2 2 6 7 5 7 7 7 8 8 9 9 8 9 10 11 10 10 11 9 9 10 11 12 12 13 13 14 15 16 17 18 19 19 19 20 22 23 22 22 23 25 28 31 33 32 30 30 31 32 29 26 25 24 23 21 18 15 15 12 10 10 9 6 6 6 6 6 5 5 6 7 9 11 13 15 15
4 4 5 5 6 6 6 2 3 3 1 1 0 3 5 1 5 9 6 4 2 0 6 7 6 7 7 6 6 7 10 9 8 10 10 10 9 9 10 8 9 10 11 11 12 13 12 13 15 16 17 18 18 19 19 19 20 22 22 21 22 24 26 29 32 33 32 29 28 29 30 28 26 24 23 21 17 15 15 14 12 11 9 7 8 8 7 7 7 9 10 10 12 12 13 16 16
2 3 5 2 6 5 5 4 4 2 0 3 1 2 5 6 9 9 5 3 1 2 7 7 6 6 6 6 5 6 10 9 9 10 9 8 8 7 9 8 8 9 11 11 11 12 12 12 14 15 17 18 18 18 18 18 18 20 21 21 22 23 25 27 29 32 32 31 29 28 29 29 28 26 24 23 19 18 17 15 14 14 12 10 11 9 7 7 8 11 13 14 15 15 15 17 17
2 2 2 2 2 1 5 4 4 1 0 4 3 1 5 7 9 7 5 2 3 4 8 6 6 6 6 6 5 6 9 11 11 10 9 7 7 7 8 9 8 8 10 11 11 11 11 11 13 14 16 17 18 18 18 18 18 18 20 21 21 22 23 25 27 30 31 32 31 29 28 28 27 27 26 24 22 21 20 18 16 15 14 13 14 12 9 9 9 12 14 14 17 17 17 18 17
3 1 2 3 2 1 6 2 4 2 3 4 5 1 6 6 9 6 4 2 4 5 8 7 7 7 6 6 6 5 8 12 13 12 9 7 6 7 8 9 9 8 10 11 10 10 10 9 11 13 14 16 17 18 18 18 17 17 18 19 21 22 23 24 26 28 30 31 32 31 29 28 26 26 26 25 24 22 21 19 18 16 14 13 14 13 13 14 14 16 17 15 18 19 18 18 18
3 2 1 2 2 1 4 1 3 1 4 4 2 2 4 3 6 6 4 3 3 6 8 8 7 7 6 5 5 5 7 10 12 13 10 7 7 7 8 9 9 9 10 11 10 10 10 8 9 11 13 15 16 17 18 18 18 17 17 18 19 21 22 24 25 26 28 30 31 31 30 28 27 25 24 25 25 24 21 19 18 16 14 13 13 14 15 17 17 19 20 18 19 20 19 19 18
4 3 3 1 0 0 3 2 2 4 2 3 2 2 7 6 6 8 6 2 4 7 9 9 7 7 6 5 5 6 6 6 10 15 11 8 9 8 9 10 10 10 10 11 11 10 10 8 8 10 12 14 16 17 17 18 18 17 16 17 17 19 21 23 25 25 27 28 30 31 30 28 27 25 24 23 24 24 22 20 19 17 16 14 14 15 15 14 15 17 20 19 19 20 20 20 19
1 1 2 1 3 2 4 3 2 6 5 3 3 3 10 11 10 10 7 1 4 8 8 7 7 7 6 6 6 6 6 6 12 16 12 11 11 9 9 10 10 11 10 11 11 10 10 9 8 9 10 12 14 16 17 18 18 18 17 18 17 18 20 22 24 25 26 27 28 29 29 29 28 26 24 22 21 21 21 21 20 19 18 17 16 16 16 14 14 14 16 17 17 17 17 18 17
5 3 4 1 3 3 5 5 2 4 4 5 3 4 8 11 12 10 7 2 3 8 6 6 7 6 7 6 6 6 6 8 13 15 12 12 12 11 11 11 11 11 10 10 10 10 10 9 9 9 10 11 12 14 15 17 19 20 21 21 21 20 20 21 22 24 25 26 26 27 28 29 28 27 25 23 22 20 19 19 19 19 19 19 19 18 17 16 15 15 16 16 17 18 17 16 15
5 4 3 2 2 4 5 4 4 3 3 5 2 4 9 11 12 10 7 4 3 7 6 7 7 6 7 6 7 7 6 9 13 15 13 13 13 12 12 12 12 12 10 10 10 10 9 9 10 9 9 10 11 12 13 15 17 19 20 22 23 21 20 20 20 22 24 24 25 25 26 27 27 27 26 25 23 21 20 19 18 18 18 18 19 18 17 16 15 15 15 15 15 16 17 15 13
4 3 2 0 2 5 5 2 4 5 2 4 3 6 11 11 9 8 5 4 4 6 6 7 7 7 6 6 8 7 6 8 12 14 14 13 13 13 13 13 14 13 12 11 10 9 9 9 10 9 10 9 10 11 12 13 14 15 17 18 19 19 18 19 20 20 21 22 23 23 24 24 25 26 26 25 24 23 21 20 19 18 17 17 17 16 15 14 14 12 12 13 12 13 14 12 9
3 1 1 1 2 4 5 2 4 5 1 3 6 7 11 11 8 8 5 4 5 5 5 6 6 7 7 6 7 7 6 8 9 11 14 14 14 14 14 15 14 14 14 12 10 9 9 9 9 9 10 9 9 9 9 10 11 12 13 14 16 16 16 17 17 17 18 18 20 22 23 23 23 23 24 24 24 23 22 20 19 18 16 15 14 13 13 11 11 10 9 10 10 11 10 8 6
3 3 3 2 3 3 3 3 6 5 1 3 5 5 7 8 6 6 5 4 5 5 5 6 5 7 8 7 6 6 7 8 8 9 12 16 17 16 16 17 16 16 15 13 11 11 10 9 10 10 10 10 9 8 8 8 9 9 10 12 13 14 15 16 16 15 15 15 17 19 21 22 22 22 21 22 22 22 21 20 19 18 16 14 12 11 10 9 8 8 8 8 7 8 6 4 4
3 2 4 1 4 2 3 4 7 5 1 2 4 3 5 5 4 6 5 3 5 5 5 7 5 6 6 6 6 6 7 7 8 8 11 15 17 18 18 18 17 17 16 15 13 12 12 11 11 11 11 10 10 9 8 8 8 8 8 9 10 12 14 15 16 17 17 17 16 17 18 19 20 20 20 20 20 20 20 19 18 17 16 15 13 11 10 9 8 7 7 7 6 6 4 3 3
3 1 3 2 2 3 4 5 6 4 3 3 4 4 4 5 3 7 5 6 7 5 6 7 8 5 4 5 7 6 6 6 7 8 11 14 18 18 18 17 17 17 17 16 15 14 14 13 12 11 12 11 11 10 9 9 9 9 9 9 9 10 11 13 14 16 17 17 16 15 15 16 16 17 18 18 18 17 18 17 16 16 15 14 13 12 10 8 7 6 6 6 6 6 5 4 3
2 1 4 4 2 1 3 5 3 3 1 3 4 3 3 6 5 6 4 6 8 7 6 7 7 6 4 4 5 5 6 5 5 8 11 14 16 17 17 18 18 19 18 17 16 15 14 14 13 12 12 12 12 11 10 9 9 9 9 10 9 9 10 11 11 12 13 14 14 13 13 13 13 14 15 15 16 16 16 15 15 15 14 13 12 10 9 8 7 7 7 7 6 6 6 5 4
1 1 5 4 2 1 1 3 2 1 2 3 5 4 1 4 5 5 4 6 8 8 7 7 5 5 6 5 6 5 6 5 5 6 9 12 15 16 17 19 20 20 18 16 15 14 14 14 13 12 12 12 11 12 11 10 10 10 9 9 10 10 10 11 11 10 11 12 12 11 11 11 11 11 12 12 13 14 14 14 14 13 13 12 11 10 8 7 7 7 7 7 7 7 7 6 5
2 3 4 1 2 2 2 3 1 2 1 3 6 5 1 5 6 5 5 4 7 8 7 7 6 5 6 6 7 6 6 6 5 6 8 13 16 17 18 20 20 19 16 15 14 14 14 14 13 13 12 11 11 11 11 11 11 10 10 10 11 11 11 12 12 11 10 11 11 10 9 9 10 10 10 10 11 11 12 12 13 13 12 11 11 10 9 8 7 6 6 6 6 6 6 5 5
1 4 3 2 3 2 2 3 1 2 3 2 6 5 2 4 6 4 3 2 6 7 6 6 6 6 6 6 7 7 6 6 5 6 10 15 18 19 19 19 18 17 15 14 14 13 13 13 13 13 12 11 11 11 11 11 11 11 11 11 12 13 12 12 13 13 11 10 10 10 9 9 8 9 9 9 10 10 10 10 10 11 11 11 11 10 9 9 8 7 7 6 6 5 5 4 4
2 4 3 3 3 2 2 2 2 4 3 4 5 3 2 3 5 3 2 3 5 4 4 6 6 6 6 6 6 6 6 6 5 7 12 17 18 17 16 16 16 16 15 14 13 12 13 13 13 14 14 12 11 11 11 12 12 13 13 13 14 14 13 13 14 14 13 11 11 11 10 10 9 8 8 9 9 9 9 9 9 10 10 10 10 9 9 9 8 8 7 7 7 6 5 4 4
3 2 1 2 2 2 2 4 4 4 3 5 4 2 1 2 5 5 5 6 6 5 4 6 6 7 6 6 6 6 5 6 6 7 10 15 17 16 15 15 16 16 15 15 14 13 13 13 13 14 15 13 11 11 11 12 12 13 13 13 14 15 14 14 15 16 15 14 13 13 12 11 10 9 8 7 8 9 9 9 10 10 10 10 9 9 9 9 8 8 8 7 7 6 6 5 5
3 3 3 3 3 4 3 4 3 0 3 2 2 1 1 5 8 6 6 7 7 7 7 7 6 7 7 6 6 6 6 6 7 6 8 10 13 15 16 16 17 17 17 16 15 15 14 14 13 14 15 13 12 12 11 12 12 12 12 13 14 15 15 15 16 17 17 16 15 15 14 13 13 11 10 8 7 8 10 10 10 10 10 10 10 10 10 9 8 8 8 7 7 7 7 7 7
3 2 3 4 3 4 2 4 2 3 4 1 2 2 2 4 6 7 9 8 7 7 7 8 7 8 8 7 6 7 8 7 7 6 6 8 12 15 16 17 17 17 17 16 16 15 15 15 14 14 15 13 12 12 12 12 12 11 12 13 14 14 15 15 16 16 17 16 16 16 15 15 15 14 13 11 10 9 10 11 11 11 10 11 11 11 11 11 10 10 9 9 8 8 8 9 9
2 2 3 4 4 3 1 3 2 3 5 3 2 2 2 2 3 6 8 7 5 6 7 6 7 8 7 7 7 7 8 7 6 6 7 10 14 16 17 18 17 16 16 16 15 15 15 15 15 15 15 14 13 12 12 12 12 12 12 13 14 14 14 15 15 16 16 16 16 16 16 16 16 16 15 14 13 11 12 12 12 12 12 12 12 12 12 12 13 13 13 12 12 11 11 11 11
1 1 3 3 2 4 2 2 4 2 3 4 2 3 5 4 5 5 3 6 6 5 5 5 7 6 4 6 7 7 7 7 6 6 6 11 15 16 17 19 18 17 16 15 15 15 15 15 16 16 16 15 15 14 13 13 13 14 14 14 14 14 15 15 15 15 15 15 15 15 16 16 16 17 16 15 14 14 14 14 14 14 13 13 13 13 14 14 14 15 15 16 15 14 15 15 14
1 2 3 1 3 5 4 1 0 3 1 4 2 3 6 4 3 5 6 6 8 6 6 6 7 6 4 6 8 7 7 7 7 6 7 10 14 16 17 17 18 18 16 16 15 15 15 16 16 17 16 16 16 15 14 14 15 15 15 15 16 16 16 16 16 15 15 15 15 16 16 16 16 16 16 15 15 14 14 15 15 16 16 16 15 15 16 16 16 17 17 18 18 17 17 18 18
2 3 2 2 3 4 4 1 3 5 1 4 3 3 6 3 1 5 7 6 8 7 6 7 8 7 6 8 8 7 8 7 7 7 8 11 13 15 16 16 17 17 17 16 15 14 15 16 16 17 17 17 16 16 16 16 16 16 16 16 16 17 18 18 18 17 16 16 16 16 16 16 16 15 15 15 15 15 15 15 16 17 17 17 17 17 17 18 18 19 19 19 19 19 20 21 21
2 3 2 2 2 1 2 2 1 3 2 5 5 4 4 3 3 4 3 4 7 7 6 6 8 8 7 8 8 8 8 6 7 7 7 9 13 15 16 16 15 15 15 15 15 14 14 14 15 15 16 16 16 17 18 18 17 17 17 16 16 17 18 18 19 19 18 18 18 17 17 17 16 15 15 15 15 15 15 16 17 17 17 18 18 18 19 19 20 21 21 21 21 21 23 23 23
2 3 3 2 3 2 1 2 1 0 1 3 5 5 4 5 6 5 6 8 7 7 6 6 8 8 7 7 7 7 7 6 7 7 7 10 15 19 18 17 16 15 15 16 15 14 13 12 13 14 14 15 15 16 17 18 19 19 19 18 17 17 17 18 19 19 20 20 19 19 19 18 18 16 15 15 15 16 16 17 17 18 18 19 19 19 19 19 21 22 23 23 22 23 25 25 25
1 2 2 1 2 1 1 1 2 2 2 1 2 5 6 6 5 7 9 8 7 8 7 7 8 8 8 7 7 6 6 6 7 7 8 11 18 22 22 19 18 17 17 17 16 15 13 12 12 13 14 14 15 16 16 18 18 19 20 20 19 18 18 19 20 20 21 21 21 20 20 19 19 18 17 17 17 17 17 17 18 18 19 19 20 20 19 19 21 23 23 23 23 24 26 27 27
1 0 1 2 2 3 2 2 2 2 2 3 2 3 9 7 4 7 8 6 6 7 6 6 8 8 8 8 8 7 7 8 8 8 8 12 18 23 24 23 21 19 19 18 17 17 15 13 12 12 14 14 16 17 17 18 19 19 20 20 20 20 20 20 21 21 22 23 22 22 21 20 21 20 19 19 19 18 18 19 20 20 20 20 20 20 20 20 21 23 23 23 23 24 26 28 29
Wind_Direction
135 120 123 130 145 110 27 45 67 358 71 82 36 43 304 292 15 19 332 334 66 328 314 17 19 31 51 92 132 127 86 112 150 58 261 308 337 343 346 343 340 338 337 337 335 338 341 344 353 353 348 350 350 350 350 349 347 346 345 343 341 341 340 338 337 334 331 327 324 324 325 322 320 318 314 315 317 317 314 311 303 283 267 258 253 246 238 229 221 217 209 202 199 203 202 186 197
123 111 113 114 84 70 19 47 86 2 56 72 328 188 271 329 30 11 295 301 225 263 184 107 75 67 59 85 108 93 24 308 166 174 268 323 336 342 347 341 340 341 339 335 334 338 340 344 352 351 347 349 349 349 349 348 347 347 347 345 342 340 339 338 336 333 330 327 321 320 322 322 319 315 313 312 312 313 312 311 309 300 284 266 256 251 248 236 224 224 216 206 198 196 198 192 211
116 113 108 101 56 51 76 41 83 78 69 89 286 243 297 12 209 254 275 280 268 268 358 336 77 62 45 53 44 82 341 307 311 268 291 328 336 340 342 338 339 339 336 333 334 338 338 343 351 350 347 347 347 348 348 348 347 347 347 345 344 341 338 335 334 330 326 325 321 319 317 318 315 307 307 309 309 309 310 311 310 311 302 281 266 257 252 244 232 230 222 213 206 196 197 195 208
121 114 101 103 54 35 60 46 95 110 96 145 244 278 304 162 213 231 260 306 313 347 337 336 42 350 67 65 354 103 313 290 277 255 291 325 334 337 340 338 337 335 333 334 337 339 339 343 349 349 347 347 347 347 347 347 347 347 347 346 344 342 339 334 332 328 324 321 318 316 313 312 312 307 302 301 303 304 308 312 312 314 313 296 278 265 255 248 241 234 225 216 213 204 201 197 204
102 88 74 97 75 36 81 71 86 85 135 174 129 287 288 208 227 243 264 320 352 21 319 78 41 299 75 100 145 125 290 281 292 284 277 315 333 342 346 342 339 339 337 338 339 339 340 344 347 349 348 348 347 346 347 346 346 346 346 345 344 343 340 336 332 329 325 322 317 313 313 310 309 307 303 296 295 299 304 308 311 314 314 302 287 277 263 252 245 238 229 216 216 213 205 199 204
89 75 64 76 84 115 83 70 80 65 161 164 124 260 294 236 233 262 296 306 299 27 97 73 41 186 56 280 175 171 215 14 311 306 291 316 335 345 352 348 345 345 343 342 341 342 343 346 347 349 350 349 348 347 346 345 345 344 344 343 342 342 341 338 334 330 326 323 319 315 312 310 308 305 302 297 296 297 296 296 301 309 315 308 297 293 277 257 244 237 230 216 216 217 209 203 203
88 71 52 67 61 42 76 83 106 81 142 150 144 247 301 274 248 331 345 313 261 14 58 51 128 136 26 281 303 222 207 243 294 323 313 326 339 345 355 353 350 347 346 345 344 346 346 347 349 350 352 352 350 347 345 345 344 343 342 340 341 341 340 339 336 332 327 321 317 314 311 309 307 305 302 299 299 299 292 288 287 293 306 310 303 298 296 270 248 239 231 220 216 214 212 209 203
64 70 24 70 52 31 83 85 98 157 116 262 227 237 310 304 296 56 7 345 134 347 352 332 343 115 311 5 235 239 229 260 302 328 322 337 346 351 359 356 353 352 350 350 350 350 348 350 350 351 352 353 352 349 348 346 345 344 342 340 341 341 340 339 337 333 328 323 318 312 310 308 307 305 303 300 300 301 297 289 281 276 284 304 307 299 303 293 260 243 234 224 216 210 211 209 203
52 50 58 70 79 57 73 64 54 156 339 341 325 294 320 334 16 82 56 17 41 307 326 313 328 109 289 13 272 257 264 296 313 323 329 345 350 355 0 360 357 356 356 356 356 354 352 351 350 351 353 354 353 352 352 350 349 347 343 341 341 340 340 339 338 335 330 326 322 316 310 307 306 305 303 300 299 299 299 294 282 271 270 284 295 298 302 300 282 250 234 224 214 209 206 205 204
42 28 90 74 84 79 64 61 43 86 285 305 311 279 295 319 69 77 104 40 334 279 309 294 20 60 321 277 283 277 301 326 323 327 336 343 348 355 359 2 359 357 358 359 360 357 355 352 352 353 353 354 354 354 355 354 354 351 346 342 341 341 341 340 338 336 332 328 325 320 313 307 303 302 302 300 298 296 297 298 287 273 266 267 270 283 299 298 302 271 238 226 216 210 207 204 204
48 2 85 83 67 93 116 152 91 65 291 317 312 272 261 223 123 54 54 88 297 292 304 330 69 120 33 290 273 261 271 321 323 328 339 338 342 349 356 1 1 0 359 360 1 358 357 355 355 355 354 355 354 354 355 355 354 353 351 345 342 342 341 341 341 339 334 329 325 322 316 310 303 300 301 300 299 295 295 297 289 279 267 262 265 273 286 288 292 292 254 233 218 213 210 206 204
85 350 63 82 80 134 157 138 130 292 317 342 323 293 273 112 107 88 34 119 309 338 307 337 130 164 56 324 277 282 295 331 326 329 336 336 340 345 351 356 0 2 360 0 0 359 358 358 358 357 356 356 354 355 355 354 353 354 354 348 343 342 341 341 342 342 337 331 326 323 318 311 306 302 301 300 299 298 296 297 290 283 273 269 277 274 273 275 275 289 281 240 220 214 209 204 202
96 118 85 82 105 115 121 121 157 332 342 301 202 295 338 62 122 172 157 319 341 22 324 254 164 139 82 291 307 308 312 339 335 334 332 337 342 343 346 350 357 359 0 360 359 359 360 1 1 359 358 357 355 356 355 354 352 354 355 351 347 344 341 340 342 343 340 335 328 322 318 313 310 306 303 302 301 302 299 297 292 287 285 281 286 282 270 265 267 279 286 246 224 215 206 202 201
105 145 95 98 61 80 120 109 141 122 348 264 245 295 334 48 187 182 140 30 324 164 272 262 150 139 158 319 328 300 311 336 336 333 329 336 342 345 346 348 355 358 2 1 358 359 0 3 3 1 0 358 357 356 353 353 353 354 355 353 349 347 343 341 341 343 343 339 330 323 319 315 312 309 307 307 306 305 302 299 295 289 289 287 286 285 270 257 259 269 279 259 230 221 207 202 202
113 136 81 101 56 46 144 129 142 128 175 229 252 295 29 77 158 164 169 114 284 228 230 311 137 169 176 22 296 268 311 329 328 325 322 326 337 350 351 349 356 359 2 2 360 359 0 3 3 3 1 360 358 356 353 352 353 354 354 352 350 349 346 343 340 341 345 343 335 327 322 318 314 311 312 313 311 309 306 301 296 291 289 288 286 283 272 258 254 260 274 262 232 224 208 201 204
106 115 73 91 91 98 160 136 134 119 207 217 284 309 57 302 162 141 248 161 265 300 20 281 140 115 175 172 252 280 313 319 320 317 311 317 332 350 357 356 355 358 2 3 1 359 359 1 2 3 1 0 359 357 354 352 353 353 353 352 352 351 347 346 342 340 345 346 341 335 330 326 321 321 325 323 318 313 308 302 297 295 291 287 283 279 278 264 252 257 271 255 230 222 206 200 204
64 79 68 80 119 149 167 160 158 151 220 236 299 327 106 294 273 202 257 97 287 310 357 274 257 207 193 225 274 295 307 310 315 309 303 315 330 345 356 360 357 356 359 1 2 358 356 359 1 2 1 0 0 359 356 354 354 353 353 353 353 352 349 348 346 342 344 348 346 343 341 337 333 332 333 330 322 316 309 304 298 294 291 288 283 276 278 271 254 254 267 253 234 224 209 203 204
51 73 74 97 145 135 158 175 193 156 152 214 272 183 130 242 296 318 308 2 355 335 319 309 313 276 244 258 279 293 297 308 315 305 300 313 328 339 347 354 356 354 354 356 1 359 354 356 360 2 2 360 1 0 357 355 354 353 353 353 354 354 353 352 351 346 346 349 347 345 347 342 340 338 334 330 321 314 310 305 300 295 294 291 285 273 272 274 258 251 257 253 240 228 212 206 205
69 98 79 114 185 148 158 176 195 179 143 179 275 277 159 194 259 6 295 304 353 351 308 333 338 304 288 271 274 290 298 314 320 306 298 308 319 328 336 344 352 352 351 352 356 359 355 354 359 2 2 359 0 1 359 357 355 353 352 354 356 357 357 355 353 348 348 352 347 344 349 346 345 341 335 334 325 318 315 309 301 295 294 292 287 274 267 269 263 252 251 253 243 234 217 208 204
69 92 79 163 205 165 174 180 200 237 160 127 106 200 238 234 246 339 229 283 331 273 263 315 308 282 289 285 283 302 309 318 321 304 292 302 313 322 332 338 347 349 349 348 349 356 356 355 358 3 3 359 0 2 359 357 355 353 353 357 359 359 359 356 354 350 350 353 347 343 348 347 344 341 339 340 338 335 332 323 308 296 290 290 287 271 265 265 264 254 250 254 245 239 229 211 202
55 67 102 164 171 103 23 221 224 256 131 124 138 109 15 269 207 119 156 277 303 256 233 225 234 244 256 279 295 310 311 314 319 303 287 295 307 320 333 336 344 346 343 343 345 352 357 358 359 2 3 360 1 2 359 357 356 353 354 360 1 1 1 357 356 355 352 353 350 346 345 345 343 341 341 342 344 343 343 342 324 309 298 290 287 264 258 258 261 257 251 257 249 243 240 215 202
71 35 106 149 144 106 268 283 268 210 97 90 82 91 199 290 311 146 153 204 253 240 224 212 219 230 238 274 296 307 307 309 315 302 288 289 299 315 330 335 341 345 342 341 344 350 356 359 1 2 2 1 2 2 359 358 356 355 356 0 1 2 3 1 359 358 356 355 354 349 345 345 344 341 341 341 345 345 346 351 337 320 310 299 294 273 252 248 256 261 255 259 260 254 244 221 206
92 51 3 8 153 118 264 315 287 180 95 90 147 235 309 14 306 181 170 218 230 229 222 211 230 246 258 282 286 292 297 300 306 300 290 287 296 312 323 329 336 342 340 340 343 347 352 358 2 2 2 1 1 1 359 359 358 357 358 1 2 3 4 4 1 360 359 359 358 355 349 345 344 342 342 342 343 345 348 354 342 325 316 306 296 288 244 220 247 258 258 255 267 264 243 232 216
80 92 11 10 82 75 313 303 55 111 103 196 227 266 336 324 286 20 245 244 245 252 257 249 260 272 277 280 273 276 285 290 299 300 292 286 294 308 316 322 331 336 335 339 343 345 348 355 0 1 3 2 359 360 359 359 360 359 359 1 3 5 6 5 4 2 1 1 1 0 357 351 348 346 346 344 342 346 352 355 349 331 317 311 299 294 211 175 208 225 253 252 271 284 247 234 215
64 108 171 39 51 5 294 91 51 52 75 262 224 352 268 224 214 342 262 256 255 264 279 284 292 301 290 275 276 283 288 293 300 300 296 292 295 304 313 318 323 331 334 339 341 342 346 349 356 359 2 2 358 359 360 359 0 360 1 2 4 7 8 7 8 5 2 2 4 5 4 1 358 353 348 345 344 350 357 359 359 345 322 319 302 272 208 159 130 139 225 249 272 277 224 202 186
83 117 145 95 19 323 357 74 24 360 313 320 7 309 291 221 214 277 256 253 267 290 300 315 344 321 300 289 285 289 287 290 298 297 297 301 299 302 311 318 319 327 335 340 339 338 342 345 352 356 358 1 357 359 1 359 1 1 1 4 6 8 10 11 11 9 5 3 5 9 11 9 7 1 353 349 348 349 356 5 11 11 358 347 321 311 7 83 97 111 158 189 205 196 174 165 160
124 113 111 87 40 327 36 69 352 325 268 351 293 272 287 290 330 274 264 273 297 309 299 318 350 309 293 293 290 290 277 281 292 290 291 299 304 306 309 314 316 326 335 339 340 335 338 342 348 353 355 358 357 359 2 0 1 2 1 4 7 8 11 14 14 14 12 8 5 8 14 15 13 9 4 2 358 353 356 10 22 29 34 29 17 22 47 90 107 125 144 153 167 163 156 160 163
120 116 90 31 5 16 34 59 356 333 216 60 149 260 288 350 320 231 251 305 348 274 283 307 320 291 289 290 290 285 272 280 286 276 278 290 305 307 304 311 315 323 334 336 339 336 335 340 346 351 352 355 357 358 3 3 3 4 3 4 7 9 11 15 18 18 19 18 11 8 13 19 18 16 15 14 11 11 12 19 30 45 52 52 59 64 83 104 113 126 135 143 150 155 152 148 153
119 100 82 356 360 31 8 355 332 329 207 266 15 324 311 261 240 238 252 313 32 194 280 293 291 285 291 289 291 281 275 283 278 267 270 286 303 302 302 315 314 318 333 334 334 335 335 339 345 350 350 352 356 358 1 4 5 6 6 5 6 9 11 15 20 20 21 24 21 15 14 17 21 21 23 23 21 26 30 33 40 56 67 69 77 73 76 95 111 119 125 133 138 149 147 136 141
128 56 87 14 7 17 342 337 315 304 125 320 2 330 294 255 250 256 282 312 57 288 275 278 282 286 292 289 290 284 281 278 269 267 271 287 301 300 303 317 316 313 328 331 328 333 335 339 345 350 350 350 354 357 359 3 6 8 9 7 7 8 11 15 20 23 23 24 25 25 21 19 21 23 27 28 27 33 41 47 54 65 76 91 98 84 69 82 101 116 124 130 133 142 138 130 135
95 54 71 44 54 323 318 343 356 23 71 11 66 218 266 266 271 277 306 293 174 251 268 272 281 283 287 287 283 282 281 272 266 270 275 286 299 306 308 315 317 313 323 328 325 331 334 338 345 350 352 351 353 355 356 1 5 8 10 10 9 9 11 14 19 23 25 26 25 27 28 25 24 26 28 29 30 37 42 48 56 67 78 89 94 90 93 98 105 118 126 129 129 135 136 129 131
46 95 311 354 101 298 309 307 49 45 285 8 78 227 269 266 269 272 332 10 175 233 267 273 278 278 282 285 280 280 284 281 275 270 274 286 300 313 313 312 315 315 324 327 322 327 332 337 345 351 354 354 355 355 355 359 3 6 11 12 12 12 11 12 17 21 23 26 27 27 29 28 29 30 31 31 32 36 41 47 52 59 70 81 89 95 102 105 110 117 123 130 130 135 138 132 132
352 84 146 329 60 15 306 259 50 5 278 336 51 243 278 274 263 266 326 2 208 237 265 270 272 275 280 283 286 286 288 295 286 274 275 289 300 316 317 312 312 316 324 327 323 323 329 336 343 351 356 356 356 355 355 357 2 5 9 13 14 15 14 13 16 18 20 25 27 28 29 30 31 33 36 36 35 35 39 46 53 57 61 67 81 90 96 101 109 114 115 121 128 131 132 128 126
320 28 109 231 317 235 297 292 345 358 347 322 357 231 253 266 276 283 301 314 225 240 254 262 268 275 282 288 290 286 282 292 283 278 285 294 299 314 317 314 312 314 320 324 326 323 325 332 338 349 357 358 357 355 356 357 1 4 8 13 15 16 17 16 15 16 19 22 25 27 29 30 32 34 38 40 41 40 39 41 47 55 61 65 72 80 85 92 103 112 111 111 118 122 121 119 117
185 5 86 3 314 237 265 268 326 8 8 318 336 260 264 277 285 289 293 252 213 242 252 261 271 279 284 292 289 282 283 275 271 278 288 291 295 308 312 316 315 311 314 319 327 327 326 328 332 344 352 357 359 357 357 357 360 3 7 12 15 17 18 19 18 15 17 20 23 24 27 30 32 34 36 39 43 45 45 45 45 48 54 60 69 77 83 87 94 104 106 106 109 110 111 113 113
149 162 120 138 306 268 254 260 289 10 351 295 253 251 277 287 289 291 298 317 223 253 273 271 273 279 279 288 282 278 281 268 273 285 288 286 292 300 305 314 318 316 313 314 326 332 330 329 330 339 345 349 355 358 358 357 0 3 6 8 10 13 14 17 18 16 16 17 20 21 24 28 30 32 35 37 39 43 46 47 48 50 51 54 59 67 75 82 87 93 99 103 103 102 103 105 107
119 113 108 171 259 284 271 279 301 351 339 281 238 276 284 282 282 283 298 329 279 262 274 270 269 273 272 278 277 275 270 267 282 291 287 287 294 297 300 308 316 322 323 318 324 332 336 334 331 337 342 343 345 351 357 357 358 0 4 5 4 7 8 10 15 16 16 15 16 19 22 25 27 30 32 34 37 39 44 47 48 50 52 55 58 63 70 76 82 87 94 99 101 104 105 104 104
84 115 134 225 231 262 273 273 313 1 4 274 353 330 290 280 281 285 306 317 268 247 247 263 270 274 274 272 271 272 275 285 296 297 294 299 302 301 302 305 311 320 326 327 327 328 334 336 334 337 340 344 342 343 351 355 356 356 358 0 360 3 5 6 9 12 14 14 14 16 19 22 24 29 31 32 35 36 39 44 47 49 50 55 61 68 73 77 82 86 92 97 103 108 110 109 99
67 97 129 327 273 281 294 303 336 360 352 274 350 339 291 283 283 285 289 257 255 251 235 253 269 278 280 268 269 279 290 299 303 301 303 309 311 308 307 309 312 313 317 326 330 329 331 332 334 336 336 341 342 339 341 347 353 353 354 358 357 0 5 7 7 7 9 11 12 14 16 18 20 25 28 30 33 34 36 38 42 47 50 53 60 68 72 76 79 82 87 93 104 110 112 110 80
54 55 77 315 315 351 311 315 339 333 263 295 325 317 287 295 306 294 279 249 275 288 265 260 249 253 268 271 272 275 282 290 296 299 301 308 314 313 312 315 315 312 314 322 328 327 328 328 329 332 333 336 338 338 336 335 343 348 350 354 356 359 4 5 5 6 8 8 11 13 13 15 16 19 23 27 31 33 34 35 36 40 44 48 51 60 67 69 72 79 82 80 87 97 107 106 62
358 74 101 316 308 319 259 296 331 325 28 351 333 340 302 315 339 293 298 330 309 319 325 301 270 249 269 288 282 261 256 270 282 291 297 304 308 309 312 315 315 317 318 321 324 322 323 324 323 326 328 331 333 334 333 331 333 337 340 346 352 358 2 4 2 2 5 4 7 11 11 11 12 14 17 21 27 30 32 34 34 35 38 40 42 46 54 59 65 72 72 63 58 62 77 84 74
342 228 141 167 257 265 287 324 346 9 43 360 16 23 304 309 305 264 302 346 313 328 344 306 293 298 301 294 286 277 269 265 265 272 284 293 297 303 310 316 318 321 322 322 320 317 317 318 319 320 323 326 329 330 329 328 329 330 331 333 339 345 348 355 357 354 355 357 359 3 5 7 7 10 13 15 20 24 27 30 33 34 33 33 35 37 41 46 51 47 39 35 33 32 33 41 63
20 233 147 128 130 164 333 350 12 47 348 314 39 70 278 312 304 265 315 335 303 315 318 289 289 303 303 285 282 288 286 280 274 273 278 285 291 298 307 316 321 321 323 323 316 314 314 314 317 317 319 323 326 327 325 324 326 326 325 323 324 323 323 333 345 346 346 349 353 354 355 358 0 4 8 11 14 16 20 23 27 29 29 31 32 30 30 30 26 16 9 3 359 359 357 3 24
5 178 125 115 111 122 23 34 46 337 276 312 25 80 206 295 283 275 328 327 306 309 300 291 290 285 290 288 282 280 273 268 275 285 287 287 292 296 302 313 319 319 322 322 316 314 313 313 316 315 317 323 325 326 324 322 322 322 320 315 313 312 308 316 328 335 339 341 345 349 347 347 350 354 359 5 8 10 13 15 19 21 22 27 28 27 25 21 15 6 2 360 354 351 348 346 350
268 176 133 138 130 140 142 97 68 309 351 328 342 23 80 273 279 311 354 336 306 295 274 276 279 277 286 291 290 285 277 263 247 259 280 289 296 302 306 311 316 319 323 323 319 316 312 312 313 311 316 321 323 325 323 322 320 316 314 308 306 307 304 306 313 318 325 330 335 343 343 340 341 342 345 352 358 2 6 8 11 12 14 17 18 20 21 18 14 7 3 2 355 352 347 342 339
225 144 104 64 78 89 103 98 117 28 35 286 306 355 32 280 285 317 6 314 274 272 266 265 264 273 279 280 287 287 289 288 264 262 278 288 298 305 310 315 318 322 324 324 323 319 313 309 307 306 309 315 319 321 320 321 319 313 309 304 300 301 302 301 303 307 313 316 321 331 336 336 339 336 336 339 343 347 352 357 1 2 4 7 8 9 9 7 7 5 4 360 354 351 345 338 324
122 111 69 66 51 39 61 40 94 64 1 254 266 331 36 304 287 256 219 220 222 238 277 279 274 281 276 266 274 279 291 301 301 297 293 296 304 311 317 320 322 321 318 318 321 320 316 311 307 303 302 307 311 313 314 316 314 310 308 303 298 298 299 296 294 300 307 308 309 318 324 328 333 334 331 330 330 332 335 338 342 346 351 354 357 358 355 355 356 356 356 352 347 343 335 326 299
99 105 83 99 345 5 31 352 37 69 300 254 244 290 108 242 265 246 239 240 217 202 228 253 263 272 271 270 275 279 289 296 299 302 299 303 310 317 321 321 320 318 315 314 314 316 317 315 312 306 304 308 309 308 309 310 309 307 305 301 298 299 298 294 292 296 302 303 305 309 312 315 320 324 324 323 321 318 319 323 324 328 333 336 340 343 342 344 344 342 341 337 334 329 322 312 295
76 67 51 64 356 11 19 336 10 183 259 229 208 277 182 229 244 241 251 254 231 212 211 220 237 254 264 274 284 291 294 291 293 293 293 299 300 304 310 314 316 316 315 315 312 312 314 315 314 310 309 311 310 308 306 305 305 304 302 298 298 300 299 297 296 297 300 301 301 302 304 306 309 311 314 316 315 308 308 312 311 312 316 319 321 323 324 325 324 323 322 318 313 307 302 294 285
44 56 59 76 68 40 351 297 323 287 278 250 228 281 284 271 261 225 228 239 227 221 227 224 228 243 257 271 282 292 291 284 281 281 283 285 284 291 299 303 307 310 313 315 314 313 312 312 313 311 309 311 311 307 304 304 304 304 301 298 298 300 301 302 302 302 304 303 300 300 300 299 300 303 306 308 308 302 301 304 304 303 303 302 303 303 304 304 303 303 301 299 296 292 289 284 278
4 187 118 99 126 118 243 255 245 281 294 301 297 278 209 245 278 218 220 250 258 246 246 241 240 240 247 270 278 276 279 279 275 273 275 277 281 290 297 299 302 305 310 314 315 316 314 310 310 308 307 310 308 304 303 303 303 303 301 299 300 301 301 303 303 305 307 306 305 302 299 298 297 299 302 303 302 298 295 295 294 295 294 292 290 289 290 290 291 292 292 291 291 290 288 285 280
268 181 81 70 146 134 119 186 185 205 313 303 283 237 218 226 271 274 284 297 291 280 276 270 262 251 249 276 274 266 270 272 272 272 273 280 288 294 296 298 301 302 307 311 313 317 316 311 307 303 303 304 304 304 302 300 300 300 299 299 300 301 302 302 302 305 307 308 307 304 303 302 299 299 300 300 300 296 292 290 287 286 284 283 283 282 282 283 284 284 286 286 287 288 288 286 285
359 47 70 120 140 117 107 149 208 75 36 286 293 281 292 315 306 322 350 319 301 302 297 283 271 279 295 278 267 265 265 262 263 263 263 278 290 296 296 298 299 300 304 306 308 313 313 311 307 302 299 296 297 300 299 297 297 297 297 298 299 299 300 301 303 305 307 306 305 304 305 304 302 303 303 301 300 296 294 291 287 284 281 278 277 277 277 278 279 279 280 282 283 285 285 285 285
67 77 145 165 100 92 99 79 356 37 37 284 329 298 298 342 330 329 350 322 299 290 284 290 287 287 284 267 264 265 262 265 269 267 266 273 282 288 293 296 296 295 296 297 301 304 306 307 307 303 297 291 291 293 293 294 294 294 296 297 298 298 299 300 302 304 304 303 302 303 304 303 304 305 303 301 299 296 293 290 287 286 283 280 277 275 273 272 273 274 274 277 279 281 281 281 282
101 123 137 115 104 55 32 62 20 14 328 294 314 299 270 212 227 293 304 253 268 277 284 292 275 264 257 258 266 271 274 281 279 274 273 277 282 284 285 289 289 286 284 284 287 290 294 299 301 301 298 293 289 286 286 287 288 289 292 294 296 298 299 300 301 301 300 299 299 301 301 301 303 303 301 299 295 293 291 288 287 287 285 283 281 278 275 272 270 270 270 271 273 275 276 277 278
43 47 16 37 121 142 39 64 132 207 294 293 320 327 280 228 215 209 217 224 233 250 268 265 254 254 250 247 255 267 275 279 277 280 282 281 282 282 280 281 282 280 274 272 272 273 277 284 289 292 294 293 290 287 285 283 283 284 285 286 290 294 297 299 298 297 295 294 295 296 297 299 300 299 298 295 292 290 290 288 287 286 285 285 283 281 279 276 273 270 269 269 270 271 271 272 273
21 26 3 10 70 108 177 39 80 125 141 181 327 318 277 250 206 191 214 226 214 218 233 246 255 260 257 252 253 262 268 270 272 275 279 282 283 283 284 283 284 283 277 271 265 262 264 270 276 279 282 286 287 288 287 285 283 282 279 279 281 285 289 292 294 295 293 291 291 291 294 296 295 293 293 292 290 290 290 290 289 287 286 285 284 283 282 279 276 274 272 271 269 269 268 269 270
141 157 214 156 104 109 113 338 332 91 120 164 149 289 277 263 200 201 220 226 223 223 225 249 268 267 266 268 260 257 261 266 271 273 276 282 284 286 289 292 292 289 283 277 268 261 260 265 271 274 277 282 286 287 288 288 287 284 281 278 276 277 279 283 287 290 291 291 289 288 290 291 290 289 288 286 286 288 290 291 290 289 289 287 286 286 285 282 280 278 277 275 272 270 268 268 268